TimeAKDT,TemperatureF,Dew PointF,Humidity,Sea Level PressureIn,VisibilityMPH,Wind Direction,Wind SpeedMPH,Gust SpeedMPH,PrecipitationIn,Events,Conditions,WindDirDegrees,DateUTC
12:16 AM,35.6,30.2,81,30.24,10.0,Calm,Calm,-,N/A,,Clear,0,2012-10-07 08:16:00
12:36 AM,33.8,30.2,87,30.24,10.0,NE,3.5,-,N/A,,Clear,50,2012-10-07 08:36:00
12:56 AM,33.8,32.0,93,30.25,10.0,NE,3.5,-,N/A,,Clear,50,2012-10-07 08:56:00
1:16 AM,35.6,32.0,87,30.26,10.0,NE,4.6,-,N/A,,Clear,50,2012-10-07 09:16:00
1:36 AM,33.8,30.2,87,30.26,10.0,NE,4.6,-,N/A,,Clear,50,2012-10-07 09:36:00
1:56 AM,33.8,33.8,100,30.26,10.0,NE,4.6,-,N/A,,Clear,40,2012-10-07 09:56:00
2:16 AM,33.8,32.0,93,30.26,10.0,NE,5.8,-,N/A,,Clear,50,2012-10-07 10:16:00
2:36 AM,33.8,32.0,93,30.26,0.8,Calm,Calm,-,N/A,,Mostly Cloudy,0,2012-10-07 10:36:00
2:56 AM,33.8,32.0,93,30.26,0.5,North,4.6,-,N/A,,Overcast,350,2012-10-07 10:56:00
3:16 AM,33.8,32.0,93,30.26,0.8,North,3.5,-,N/A,,Overcast,360,2012-10-07 11:16:00
3:36 AM,33.8,32.0,93,30.26,8.0,NE,4.6,-,N/A,,Overcast,50,2012-10-07 11:36:00
3:56 AM,33.8,33.8,100,30.26,10.0,NE,4.6,-,N/A,,Overcast,40,2012-10-07 11:56:00
4:16 AM,33.8,33.8,100,30.26,10.0,NE,4.6,-,N/A,,Overcast,40,2012-10-07 12:16:00
4:36 AM,33.8,33.8,100,30.26,10.0,NE,3.5,-,N/A,,Overcast,40,2012-10-07 12:36:00
4:56 AM,33.8,33.8,100,30.27,10.0,Calm,Calm,-,N/A,,Overcast,0,2012-10-07 12:56:00
5:16 AM,33.8,33.8,100,30.26,10.0,Calm,Calm,-,N/A,,Overcast,0,2012-10-07 13:16:00
5:36 AM,33.8,33.8,100,30.26,10.0,Calm,Calm,-,N/A,,Overcast,0,2012-10-07 13:36:00
5:56 AM,33.8,33.8,100,30.25,10.0,West,3.5,-,N/A,,Overcast,270,2012-10-07 13:56:00
6:16 AM,33.8,33.8,100,30.25,10.0,West,4.6,-,N/A,,Overcast,280,2012-10-07 14:16:00
6:36 AM,33.8,33.8,100,30.24,10.0,West,3.5,-,N/A,,Overcast,260,2012-10-07 14:36:00
6:56 AM,35.6,33.8,93,30.24,10.0,WSW,3.5,-,N/A,,Overcast,240,2012-10-07 14:56:00
7:16 AM,33.8,32.0,93,30.24,10.0,Calm,Calm,-,N/A,,Overcast,0,2012-10-07 15:16:00
7:36 AM,33.8,32.0,93,30.24,10.0,Calm,Calm,-,N/A,,Overcast,0,2012-10-07 15:36:00
7:56 AM,33.8,32.0,93,30.23,10.0,Calm,Calm,-,N/A,,Overcast,0,2012-10-07 15:56:00
8:16 AM,33.8,33.8,100,30.24,10.0,Calm,Calm,-,N/A,,Overcast,0,2012-10-07 16:16:00
8:36 AM,33.8,33.8,100,30.23,10.0,NNE,3.5,-,N/A,,Overcast,30,2012-10-07 16:36:00
8:56 AM,33.8,33.8,100,30.23,10.0,NNE,5.8,-,N/A,,Overcast,30,2012-10-07 16:56:00
9:36 AM,33.8,33.8,100,30.23,10.0,ENE,6.9,-,N/A,,Overcast,60,2012-10-07 17:36:00
9:56 AM,33.8,32.0,93,30.23,10.0,NE,5.8,-,N/A,,Mostly Cloudy,50,2012-10-07 17:56:00
10:16 AM,35.6,35.6,100,30.24,7.0,NE,5.8,-,N/A,,Overcast,40,2012-10-07 18:16:00
10:36 AM,35.6,33.8,93,30.24,3.0,NE,5.8,-,N/A,,Overcast,50,2012-10-07 18:36:00
10:56 AM,35.6,33.8,93,30.24,10.0,NNE,5.8,-,N/A,,Overcast,30,2012-10-07 18:56:00
11:16 AM,35.6,33.8,93,30.24,10.0,NE,5.8,-,N/A,,Overcast,50,2012-10-07 19:16:00
11:36 AM,35.6,35.6,100,30.24,10.0,ENE,5.8,-,N/A,,Overcast,70,2012-10-07 19:36:00
11:56 AM,35.6,35.6,100,30.24,10.0,ENE,3.5,-,N/A,,Overcast,60,2012-10-07 19:56:00
12:16 PM,37.4,35.6,93,30.23,10.0,East,4.6,-,N/A,,Overcast,90,2012-10-07 20:16:00
12:36 PM,37.4,35.6,93,30.24,10.0,East,4.6,-,N/A,,Overcast,100,2012-10-07 20:36:00
12:56 PM,37.4,35.6,93,30.23,10.0,Calm,Calm,-,N/A,,Overcast,0,2012-10-07 20:56:00
1:16 PM,37.4,35.6,93,30.23,10.0,SE,3.5,-,N/A,,Overcast,140,2012-10-07 21:16:00
1:36 PM,37.4,35.6,93,30.23,10.0,Calm,Calm,-,N/A,,Overcast,0,2012-10-07 21:36:00
1:56 PM,37.4,35.6,93,30.22,10.0,ESE,3.5,-,N/A,,Overcast,120,2012-10-07 21:56:00
2:16 PM,39.2,35.6,87,30.22,10.0,Calm,Calm,-,N/A,,Overcast,0,2012-10-07 22:16:00
2:36 PM,39.2,35.6,87,30.22,10.0,Calm,Calm,-,N/A,,Overcast,0,2012-10-07 22:36:00
2:56 PM,39.2,35.6,87,30.22,10.0,Calm,Calm,-,N/A,,Overcast,0,2012-10-07 22:56:00
3:16 PM,39.2,35.6,87,30.21,10.0,Calm,Calm,-,N/A,,Overcast,0,2012-10-07 23:16:00
3:36 PM,39.2,37.4,93,30.21,10.0,Calm,Calm,-,N/A,,Overcast,0,2012-10-07 23:36:00
3:56 PM,39.2,37.4,93,30.21,10.0,Calm,Calm,-,N/A,,Overcast,0,2012-10-07 23:56:00
4:16 PM,39.2,35.6,87,30.21,10.0,South,3.5,-,N/A,,Overcast,180,2012-10-08 00:16:00
4:36 PM,39.2,37.4,93,30.21,10.0,Calm,Calm,-,N/A,,Overcast,0,2012-10-08 00:36:00
4:56 PM,39.2,37.4,93,30.20,10.0,Calm,Calm,-,N/A,,Overcast,0,2012-10-08 00:56:00
5:16 PM,39.2,37.4,93,30.20,10.0,South,3.5,-,N/A,,Overcast,170,2012-10-08 01:16:00
5:36 PM,39.2,37.4,93,30.20,10.0,Calm,Calm,-,N/A,,Overcast,0,2012-10-08 01:36:00
5:56 PM,39.2,37.4,93,30.20,10.0,Calm,Calm,-,N/A,,Overcast,0,2012-10-08 01:56:00
6:16 PM,39.2,37.4,93,30.19,10.0,SSW,3.5,-,N/A,,Overcast,200,2012-10-08 02:16:00
6:36 PM,37.4,35.6,93,30.19,5.0,SSW,3.5,-,N/A,,Overcast,200,2012-10-08 02:36:00
6:56 PM,37.4,37.4,100,30.20,0.2,Calm,Calm,-,N/A,,Overcast,0,2012-10-08 02:56:00
7:16 PM,37.4,37.4,100,30.19,0.2,Calm,Calm,-,N/A,,Overcast,0,2012-10-08 03:16:00
7:36 PM,37.4,37.4,100,30.19,0.5,Calm,Calm,-,N/A,,Overcast,0,2012-10-08 03:36:00
7:56 PM,37.4,37.4,100,30.19,5.0,Calm,Calm,-,N/A,,Overcast,0,2012-10-08 03:56:00
8:16 PM,37.4,35.6,93,30.19,10.0,Calm,Calm,-,N/A,,Overcast,0,2012-10-08 04:16:00
8:36 PM,37.4,35.6,93,30.19,10.0,Calm,Calm,-,N/A,,Overcast,0,2012-10-08 04:36:00
8:56 PM,37.4,35.6,93,30.19,10.0,Calm,Calm,-,N/A,,Overcast,0,2012-10-08 04:56:00
9:16 PM,37.4,37.4,100,30.19,10.0,Calm,Calm,-,N/A,,Overcast,0,2012-10-08 05:16:00
9:36 PM,37.4,35.6,93,30.19,10.0,Calm,Calm,-,N/A,,Overcast,0,2012-10-08 05:36:00
9:56 PM,37.4,35.6,93,30.19,10.0,Calm,Calm,-,N/A,,Overcast,0,2012-10-08 05:56:00
10:16 PM,37.4,35.6,93,30.20,10.0,Calm,Calm,-,N/A,,Overcast,0,2012-10-08 06:16:00
10:36 PM,37.4,35.6,93,30.19,8.0,South,3.5,-,N/A,,Overcast,190,2012-10-08 06:36:00
10:56 PM,37.4,35.6,93,30.19,2.5,Calm,Calm,-,N/A,,Overcast,0,2012-10-08 06:56:00
11:16 PM,37.4,37.4,100,30.18,0.8,SSW,4.6,-,N/A,,Overcast,210,2012-10-08 07:16:00
11:36 PM,37.4,37.4,100,30.18,0.2,WSW,5.8,-,N/A,,Overcast,240,2012-10-08 07:36:00
11:56 PM,37.4,37.4,100,30.19,0.5,Calm,Calm,-,N/A,,Overcast,0,2012-10-08 07:56:00